DAL9311 KDCA-KATL

Flight info

Callsign DAL9311
Flight time 1h 17m
Altitude 38000
Route CLTCH3 FLASK OZZZI2
Aircraft B739/M-SDE2E3FGHIRWXY/LB1

Departure

Time 2026-05-05 00:53
Airport Ronald Reagan Washington National Airport (KDCA)

Arrival

Time 2026-05-05 02:10
Airport Hartsfield Jackson Atlanta International Airport (KATL)
Time Latitude Longitude Altitude Speed Heading
2026-05-05 00:29 38.85248 -77.04158 26 ft 0 kts 164°
2026-05-05 00:46 38.85253 -77.04160 26 ft 2 kts 165°
2026-05-05 00:46 38.85267 -77.04165 26 ft 2 kts 164°
2026-05-05 00:46 38.85281 -77.04170 26 ft 2 kts 165°
2026-05-05 00:46 38.85292 -77.04173 26 ft 1 kts 153°
2026-05-05 00:47 38.85298 -77.04181 26 ft 1 kts 93°
2026-05-05 00:47 38.85296 -77.04190 27 ft 0 kts 60°
2026-05-05 00:49 38.85296 -77.04189 27 ft 1 kts 63°
2026-05-05 00:49 38.85308 -77.04140 25 ft 6 kts 74°
2026-05-05 00:49 38.85322 -77.04080 24 ft 7 kts 71°
2026-05-05 00:50 38.85350 -77.04016 23 ft 9 kts 39°
2026-05-05 00:50 38.85412 -77.04002 23 ft 9 kts 356°
2026-05-05 00:50 38.85473 -77.04009 23 ft 8 kts 352°
2026-05-05 00:50 38.85538 -77.04026 22 ft 11 kts 348°
2026-05-05 00:51 38.85622 -77.04040 21 ft 11 kts 355°
2026-05-05 00:51 38.85691 -77.04047 20 ft 9 kts 355°
2026-05-05 00:51 38.85754 -77.04053 20 ft 10 kts 355°
2026-05-05 00:51 38.85835 -77.04060 19 ft 12 kts 356°
2026-05-05 00:52 38.85916 -77.04044 18 ft 12 kts 38°
2026-05-05 00:52 38.85972 -77.03973 16 ft 10 kts 28°
2026-05-05 00:52 38.86035 -77.03944 16 ft 9 kts 19°
2026-05-05 00:52 38.86073 -77.03889 15 ft 8 kts 113°
2026-05-05 00:53 38.85990 -77.03858 16 ft 33 kts 175°
2026-05-05 00:53 38.85480 -77.03807 19 ft 111 kts 176°
2026-05-05 00:53 38.84494 -77.03711 44 ft 171 kts 177°
2026-05-05 00:53 38.83271 -77.03596 691 ft 179 kts 177°
2026-05-05 00:54 38.82015 -77.03548 1446 ft 192 kts 181°
2026-05-05 00:54 38.80612 -77.03552 2005 ft 212 kts 182°
2026-05-05 00:54 38.79047 -77.03548 2455 ft 235 kts 184°
2026-05-05 00:54 38.77427 -77.03796 3234 ft 243 kts 198°
2026-05-05 00:55 38.75916 -77.04778 4020 ft 249 kts 222°
2026-05-05 00:55 38.74899 -77.06495 4923 ft 250 kts 248°
2026-05-05 00:55 38.74485 -77.08637 5918 ft 251 kts 262°
2026-05-05 00:55 38.74399 -77.10860 6838 ft 254 kts 267°
2026-05-05 00:56 38.74213 -77.13101 7685 ft 258 kts 257°
2026-05-05 00:56 38.73669 -77.15192 8528 ft 261 kts 249°
2026-05-05 00:56 38.72898 -77.17311 9374 ft 265 kts 246°
2026-05-05 00:56 38.72080 -77.19423 10182 ft 269 kts 247°
2026-05-05 00:57 38.71233 -77.21656 10524 ft 291 kts 248°
2026-05-05 00:57 38.70367 -77.24130 10740 ft 316 kts 250°
2026-05-05 00:57 38.69533 -77.26762 11286 ft 328 kts 252°
2026-05-05 00:57 38.68679 -77.29508 12087 ft 335 kts 252°
2026-05-05 00:58 38.67816 -77.32248 12883 ft 339 kts 252°
2026-05-05 00:58 38.66926 -77.35046 13699 ft 343 kts 252°
2026-05-05 00:58 38.66019 -77.37888 14489 ft 348 kts 251°
2026-05-05 00:58 38.65100 -77.40767 15205 ft 354 kts 251°
2026-05-05 00:59 38.64160 -77.43708 15966 ft 358 kts 251°
2026-05-05 00:59 38.63215 -77.46663 16681 ft 363 kts 251°
2026-05-05 00:59 38.62264 -77.49632 17350 ft 368 kts 251°
2026-05-05 00:59 38.61288 -77.52677 18035 ft 372 kts 251°
2026-05-05 01:00 38.60299 -77.55761 18726 ft 376 kts 251°
2026-05-05 01:00 38.59310 -77.58841 19440 ft 379 kts 251°
2026-05-05 01:00 38.58311 -77.61948 20111 ft 382 kts 251°
2026-05-05 01:00 38.57296 -77.65103 20750 ft 386 kts 250°
2026-05-05 01:01 38.56275 -77.68272 21370 ft 390 kts 250°
2026-05-05 01:01 38.55242 -77.71471 22025 ft 393 kts 250°
2026-05-05 01:01 38.54171 -77.74683 22615 ft 397 kts 248°
2026-05-05 01:01 38.52923 -77.77814 23233 ft 401 kts 243°
2026-05-05 01:02 38.51403 -77.80821 23833 ft 407 kts 236°
2026-05-05 01:02 38.49606 -77.83624 24400 ft 412 kts 232°
2026-05-05 01:02 38.47691 -77.86389 24926 ft 416 kts 231°
2026-05-05 01:02 38.45770 -77.89123 25437 ft 420 kts 232°
2026-05-05 01:03 38.43955 -77.92014 25946 ft 421 kts 237°
2026-05-05 01:03 38.42256 -77.95027 26438 ft 424 kts 238°
2026-05-05 01:03 38.40537 -77.98141 26900 ft 427 kts 238°
2026-05-05 01:03 38.38844 -78.01210 27424 ft 429 kts 238°
2026-05-05 01:04 38.37112 -78.04346 27860 ft 433 kts 238°
2026-05-05 01:04 38.33643 -78.10606 28712 ft 439 kts 238°
2026-05-05 01:04 38.31882 -78.13775 29106 ft 442 kts 238°
2026-05-05 01:05 38.30099 -78.16982 29529 ft 444 kts 237°
2026-05-05 01:05 38.28306 -78.20198 30046 ft 444 kts 237°
2026-05-05 01:05 38.26533 -78.23377 30552 ft 443 kts 238°
2026-05-05 01:05 38.24759 -78.26553 31039 ft 442 kts 238°
2026-05-05 01:06 38.22989 -78.29719 31525 ft 441 kts 238°
2026-05-05 01:06 38.21222 -78.32875 31988 ft 440 kts 238°
2026-05-05 01:06 38.19453 -78.36032 32443 ft 439 kts 238°
2026-05-05 01:06 38.17691 -78.39174 32880 ft 438 kts 238°
2026-05-05 01:07 38.15876 -78.42291 33285 ft 438 kts 237°
2026-05-05 01:07 38.14041 -78.45361 33643 ft 438 kts 237°
2026-05-05 01:07 38.12213 -78.48408 34041 ft 437 kts 237°
2026-05-05 01:07 38.10368 -78.51481 34398 ft 436 kts 237°
2026-05-05 01:08 38.08530 -78.54542 34719 ft 436 kts 237°
2026-05-05 01:08 38.06697 -78.57596 35080 ft 435 kts 237°
2026-05-05 01:08 38.04888 -78.60606 35389 ft 434 kts 237°
2026-05-05 01:08 38.03056 -78.63657 35651 ft 434 kts 237°
2026-05-05 01:09 38.01229 -78.66695 35937 ft 434 kts 236°
2026-05-05 01:09 37.99398 -78.69737 35960 ft 439 kts 236°
2026-05-05 01:09 37.95713 -78.75849 35964 ft 436 kts 236°
2026-05-05 01:10 37.92046 -78.81923 35966 ft 434 kts 236°
2026-05-05 01:10 37.88380 -78.87986 35967 ft 434 kts 236°
2026-05-05 01:11 37.84732 -78.94009 35973 ft 434 kts 237°
2026-05-05 01:11 37.81049 -79.00081 35978 ft 435 kts 237°
2026-05-05 01:12 37.77376 -79.06123 35980 ft 435 kts 237°
2026-05-05 01:12 37.73717 -79.12133 35982 ft 435 kts 237°
2026-05-05 01:13 37.70035 -79.18169 35989 ft 435 kts 237°
2026-05-05 01:13 37.66378 -79.24261 35993 ft 435 kts 238°
2026-05-05 01:14 37.62768 -79.30365 35993 ft 434 kts 238°
2026-05-05 01:14 37.59180 -79.36419 35993 ft 435 kts 238°
2026-05-05 01:15 37.55557 -79.42515 35993 ft 434 kts 238°
2026-05-05 01:15 37.51931 -79.48602 35993 ft 435 kts 238°
2026-05-05 01:16 37.48299 -79.54688 35994 ft 437 kts 238°
2026-05-05 01:16 37.44659 -79.60774 35993 ft 436 kts 238°
2026-05-05 01:17 37.41034 -79.66823 35993 ft 435 kts 237°
2026-05-05 01:17 37.37381 -79.72902 35992 ft 435 kts 237°
2026-05-05 01:18 37.33744 -79.78948 35992 ft 435 kts 237°
2026-05-05 01:18 37.30090 -79.85011 35992 ft 435 kts 237°
2026-05-05 01:19 37.26468 -79.91009 35992 ft 434 kts 237°
2026-05-05 01:19 37.22833 -79.97020 35994 ft 434 kts 237°
2026-05-05 01:20 37.19191 -80.03032 35998 ft 433 kts 237°
2026-05-05 01:20 37.15545 -80.09039 36008 ft 432 kts 237°
2026-05-05 01:21 37.11923 -80.14998 36017 ft 432 kts 237°
2026-05-05 01:21 37.08270 -80.20995 36027 ft 432 kts 237°
2026-05-05 01:22 37.04638 -80.26949 36031 ft 432 kts 237°
2026-05-05 01:22 37.00872 -80.32764 36033 ft 433 kts 232°
2026-05-05 01:23 36.96698 -80.38184 36035 ft 434 kts 230°
2026-05-05 01:23 36.92492 -80.43549 36034 ft 433 kts 231°
2026-05-05 01:24 36.88291 -80.48907 36033 ft 433 kts 231°
2026-05-05 01:24 36.84111 -80.54234 36035 ft 433 kts 231°
2026-05-05 01:25 36.79916 -80.59574 36038 ft 432 kts 231°
2026-05-05 01:25 36.75697 -80.64938 36041 ft 431 kts 231°
2026-05-05 01:26 36.71530 -80.70223 36043 ft 432 kts 230°
2026-05-05 01:26 36.67304 -80.75575 36044 ft 432 kts 230°
2026-05-05 01:27 36.63111 -80.80878 36044 ft 432 kts 230°
2026-05-05 01:27 36.58913 -80.86179 36046 ft 431 kts 230°
2026-05-05 01:28 36.54723 -80.91461 36053 ft 431 kts 230°
2026-05-05 01:28 36.50527 -80.96742 36056 ft 430 kts 230°
2026-05-05 01:29 36.46329 -81.02019 36059 ft 430 kts 230°
2026-05-05 01:29 36.42131 -81.07288 36067 ft 431 kts 230°
2026-05-05 01:30 36.37933 -81.12545 36073 ft 429 kts 230°
2026-05-05 01:30 36.33739 -81.17791 36074 ft 429 kts 230°
2026-05-05 01:31 36.29556 -81.23019 36075 ft 429 kts 230°
2026-05-05 01:31 36.25374 -81.28243 36075 ft 428 kts 230°
2026-05-05 01:32 36.21178 -81.33477 36076 ft 428 kts 230°
2026-05-05 01:32 36.17015 -81.38660 36067 ft 428 kts 230°
2026-05-05 01:33 36.12799 -81.43900 36072 ft 428 kts 230°
2026-05-05 01:33 36.08636 -81.49068 36072 ft 428 kts 230°
2026-05-05 01:34 36.04456 -81.54247 36070 ft 427 kts 230°
2026-05-05 01:34 36.00282 -81.59409 36066 ft 426 kts 230°
2026-05-05 01:35 35.96081 -81.64599 36070 ft 425 kts 230°
2026-05-05 01:35 35.91919 -81.69727 36064 ft 426 kts 229°
2026-05-05 01:36 35.87733 -81.74878 36063 ft 426 kts 229°
2026-05-05 01:36 35.83546 -81.80023 36063 ft 426 kts 229°
2026-05-05 01:37 35.79382 -81.85131 36054 ft 426 kts 229°
2026-05-05 01:37 35.75145 -81.90234 36052 ft 427 kts 229°
2026-05-05 01:38 35.70909 -81.95299 36056 ft 426 kts 229°
2026-05-05 01:38 35.66659 -82.00375 36055 ft 427 kts 229°
2026-05-05 01:39 35.62407 -82.05449 36055 ft 427 kts 229°
2026-05-05 01:39 35.58166 -82.10503 36055 ft 427 kts 229°
2026-05-05 01:40 35.53894 -82.15586 36056 ft 429 kts 229°
2026-05-05 01:40 35.49622 -82.20660 36056 ft 428 kts 229°
2026-05-05 01:41 35.45358 -82.25719 36058 ft 429 kts 229°
2026-05-05 01:41 35.41116 -82.30790 36059 ft 427 kts 230°
2026-05-05 01:42 35.36955 -82.35968 36060 ft 427 kts 230°
2026-05-05 01:42 35.32781 -82.41170 36060 ft 429 kts 230°
2026-05-05 01:43 35.28622 -82.46336 36060 ft 429 kts 230°
2026-05-05 01:43 35.24443 -82.51515 36060 ft 428 kts 230°
2026-05-05 01:44 35.20249 -82.56702 36063 ft 430 kts 230°
2026-05-05 01:44 35.16044 -82.61892 36062 ft 431 kts 230°
2026-05-05 01:45 35.11773 -82.67001 36061 ft 431 kts 229°
2026-05-05 01:45 35.07478 -82.72085 36058 ft 432 kts 229°
2026-05-05 01:46 35.03175 -82.77177 36055 ft 433 kts 229°
2026-05-05 01:46 34.98884 -82.82250 36053 ft 429 kts 229°
2026-05-05 01:47 34.94621 -82.87288 36052 ft 430 kts 229°
2026-05-05 01:47 34.90320 -82.92308 36057 ft 431 kts 228°
2026-05-05 01:48 34.85986 -82.97322 35934 ft 427 kts 228°
2026-05-05 01:48 34.83874 -82.99757 35286 ft 421 kts 228°
2026-05-05 01:48 34.81769 -83.02187 34494 ft 416 kts 227°
2026-05-05 01:49 34.79678 -83.04600 33773 ft 413 kts 227°
2026-05-05 01:49 34.77575 -83.07031 33049 ft 421 kts 227°
2026-05-05 01:49 34.75470 -83.09461 32292 ft 425 kts 227°
2026-05-05 01:49 34.73330 -83.11927 31514 ft 423 kts 227°
2026-05-05 01:50 34.71195 -83.14388 30747 ft 429 kts 227°
2026-05-05 01:50 34.69052 -83.16855 29939 ft 427 kts 227°
2026-05-05 01:50 34.66907 -83.19319 29399 ft 422 kts 227°
2026-05-05 01:50 34.64753 -83.21797 28819 ft 431 kts 227°
2026-05-05 01:51 34.62610 -83.24256 28169 ft 422 kts 227°
2026-05-05 01:51 34.60505 -83.26668 27557 ft 411 kts 227°
2026-05-05 01:51 34.58455 -83.29017 26791 ft 416 kts 227°
2026-05-05 01:51 34.56342 -83.31440 25878 ft 413 kts 227°
2026-05-05 01:52 34.54288 -83.33796 25186 ft 405 kts 227°
2026-05-05 01:52 34.52285 -83.36098 24574 ft 395 kts 227°
2026-05-05 01:52 34.50318 -83.38361 23991 ft 396 kts 227°
2026-05-05 01:52 34.48331 -83.40649 23380 ft 395 kts 227°
2026-05-05 01:53 34.46346 -83.42928 22765 ft 385 kts 227°
2026-05-05 01:53 34.44440 -83.45116 22195 ft 386 kts 227°
2026-05-05 01:53 34.42482 -83.47365 21590 ft 384 kts 226°
2026-05-05 01:53 34.40566 -83.49560 20988 ft 375 kts 226°
2026-05-05 01:54 34.38713 -83.51681 20432 ft 375 kts 226°
2026-05-05 01:54 34.36812 -83.53860 19842 ft 375 kts 226°
2026-05-05 01:54 34.34954 -83.55984 19245 ft 365 kts 226°
2026-05-05 01:54 34.33122 -83.58078 18685 ft 364 kts 226°
2026-05-05 01:55 34.31283 -83.60181 18111 ft 364 kts 226°
2026-05-05 01:55 34.29465 -83.62257 17554 ft 354 kts 225°
2026-05-05 01:55 34.27656 -83.64254 17077 ft 358 kts 224°
2026-05-05 01:55 34.25803 -83.66228 16485 ft 356 kts 223°
2026-05-05 01:56 34.23951 -83.68186 15907 ft 347 kts 223°
2026-05-05 01:56 34.22153 -83.70091 15380 ft 352 kts 223°
2026-05-05 01:56 34.20304 -83.72052 14796 ft 347 kts 223°
2026-05-05 01:56 34.18531 -83.73932 14250 ft 341 kts 223°
2026-05-05 01:57 34.16731 -83.75841 13702 ft 347 kts 223°
2026-05-05 01:57 34.14935 -83.77747 13056 ft 340 kts 223°
2026-05-05 01:57 34.13208 -83.79581 12623 ft 328 kts 222°
2026-05-05 01:57 34.11525 -83.81366 12281 ft 313 kts 222°
2026-05-05 01:58 34.09926 -83.83061 12064 ft 297 kts 222°
2026-05-05 01:58 34.08419 -83.84669 12016 ft 287 kts 223°
2026-05-05 01:58 34.06932 -83.86269 11994 ft 287 kts 223°
2026-05-05 01:58 34.05475 -83.87834 11713 ft 279 kts 223°
2026-05-05 01:59 34.04006 -83.89413 11348 ft 285 kts 223°
2026-05-05 01:59 34.02547 -83.90979 10965 ft 277 kts 223°
2026-05-05 01:59 34.01129 -83.92499 10620 ft 280 kts 223°
2026-05-05 01:59 33.99677 -83.94056 10252 ft 279 kts 222°
2026-05-05 02:00 33.98184 -83.95521 9929 ft 268 kts 214°
2026-05-05 02:00 33.96572 -83.96468 9823 ft 259 kts 198°
2026-05-05 02:00 33.94744 -83.96822 9499 ft 274 kts 184°
2026-05-05 02:00 33.92849 -83.96786 9123 ft 273 kts 179°
2026-05-05 02:01 33.90977 -83.96648 8745 ft 269 kts 179°
2026-05-05 02:01 33.89106 -83.96520 8365 ft 267 kts 179°
2026-05-05 02:01 33.87280 -83.96420 7991 ft 265 kts 180°
2026-05-05 02:01 33.85459 -83.96624 7587 ft 260 kts 201°
2026-05-05 02:02 33.83885 -83.97620 7237 ft 256 kts 216°
2026-05-05 02:02 33.82465 -83.98887 6867 ft 254 kts 218°
2026-05-05 02:02 33.81060 -84.00153 6491 ft 253 kts 216°
2026-05-05 02:02 33.79628 -84.01364 6112 ft 250 kts 215°
2026-05-05 02:03 33.78199 -84.02523 5736 ft 248 kts 214°
2026-05-05 02:03 33.76773 -84.03659 5363 ft 247 kts 214°
2026-05-05 02:03 33.75336 -84.04798 4984 ft 246 kts 213°
2026-05-05 02:03 33.73928 -84.05913 4611 ft 244 kts 213°
2026-05-05 02:04 33.72527 -84.07023 4235 ft 241 kts 213°
2026-05-05 02:04 33.71143 -84.08118 3991 ft 230 kts 213°
2026-05-05 02:04 33.69830 -84.09158 4044 ft 231 kts 213°
2026-05-05 02:04 33.68487 -84.10220 3989 ft 229 kts 213°
2026-05-05 02:05 33.67193 -84.11243 3977 ft 214 kts 213°
2026-05-05 02:05 33.66004 -84.12268 4016 ft 209 kts 221°
2026-05-05 02:05 33.65191 -84.13696 3983 ft 214 kts 250°
2026-05-05 02:05 33.64939 -84.15473 4019 ft 218 kts 263°
2026-05-05 02:06 33.64905 -84.17316 3996 ft 218 kts 267°
2026-05-05 02:06 33.64916 -84.19120 4001 ft 218 kts 267°
2026-05-05 02:06 33.64925 -84.20928 3993 ft 210 kts 267°
2026-05-05 02:06 33.64933 -84.22611 3979 ft 199 kts 267°
2026-05-05 02:07 33.64937 -84.24230 3726 ft 189 kts 266°
2026-05-05 02:07 33.64940 -84.25789 3499 ft 182 kts 266°
2026-05-05 02:07 33.64943 -84.27277 3224 ft 174 kts 266°
2026-05-05 02:07 33.64948 -84.28644 3062 ft 157 kts 265°
2026-05-05 02:08 33.64946 -84.29966 2796 ft 159 kts 265°
2026-05-05 02:08 33.64945 -84.31268 2599 ft 156 kts 266°
2026-05-05 02:08 33.64945 -84.32588 2384 ft 158 kts 266°
2026-05-05 02:08 33.64946 -84.33912 2169 ft 161 kts 269°
2026-05-05 02:09 33.64948 -84.35261 1948 ft 161 kts 269°
2026-05-05 02:09 33.64971 -84.36608 1771 ft 159 kts 269°
2026-05-05 02:09 33.64956 -84.37923 1536 ft 160 kts 267°
2026-05-05 02:09 33.64955 -84.39262 1316 ft 159 kts 269°
2026-05-05 02:10 33.64948 -84.40572 1086 ft 158 kts 269°
2026-05-05 02:10 33.64953 -84.41874 980 ft 142 kts 269°
2026-05-05 02:10 33.64953 -84.42723 995 ft 63 kts 270°
2026-05-05 02:10 33.64949 -84.43056 1002 ft 29 kts 266°
2026-05-05 02:11 33.64914 -84.43213 1006 ft 13 kts 243°
2026-05-05 02:11 33.64884 -84.43281 1008 ft 6 kts 235°
2026-05-05 02:11 33.64845 -84.43308 1009 ft 7 kts 186°
2026-05-05 02:11 33.64796 -84.43269 1009 ft 9 kts 111°
2026-05-05 02:12 33.64789 -84.43194 1007 ft 8 kts 94°
2026-05-05 02:12 33.64764 -84.43140 1006 ft 0 kts 166°
2026-05-05 02:13 33.64738 -84.43135 1006 ft 7 kts 173°
2026-05-05 02:14 33.64677 -84.43145 1006 ft 9 kts 210°
2026-05-05 02:14 33.64632 -84.43204 1008 ft 9 kts 233°
2026-05-05 02:14 33.64582 -84.43250 1008 ft 8 kts 187°
2026-05-05 02:14 33.64543 -84.43203 1007 ft 10 kts 97°
2026-05-05 02:15 33.64531 -84.43123 1007 ft 8 kts 127°
2026-05-05 02:15 33.64476 -84.43090 1007 ft 9 kts 160°
2026-05-05 02:15 33.64414 -84.43069 1007 ft 9 kts 173°
2026-05-05 02:15 33.64351 -84.43066 1008 ft 7 kts 179°
2026-05-05 02:16 33.64317 -84.43065 1008 ft 3 kts 178°
2026-05-05 02:16 33.64290 -84.43063 1009 ft 4 kts 174°
2026-05-05 02:16 33.64263 -84.43036 1009 ft 6 kts 101°
2026-05-05 02:16 33.64262 -84.43000 1008 ft 0 kts 90°